This is the latest recevied weather packets stored in our database for station/object OE1HTB-13. If no packets are shown the sender has not sent any weather packets the latest 10 day(s).
| Time | Temp. | Humidity | Pressure | Rain* | Wind** | Luminosity | Snow |
|---|---|---|---|---|---|---|---|
| 1788482771 | 19.44° C | 68% | 1018 hPa | 0 mm | - | 0 W/m² | - |
| 1788481871 | 19.44° C | 67% | 1018.1 hPa | 0 mm | - | 0 W/m² | - |
| 1788480971 | 19.44° C | 66% | 1018.2 hPa | 0 mm | - | 0 W/m² | - |
| 1788480071 | 19.44° C | 67% | 1018.3 hPa | 0 mm | - | 0 W/m² | - |
| 1788479171 | 19.44° C | 67% | 1018.4 hPa | 0 mm | - | 0 W/m² | - |
| 1788478270 | 19.44° C | 68% | 1018.5 hPa | 0 mm | - | 0 W/m² | - |
| 1788477370 | 18.89° C | 69% | 1018.6 hPa | 0 mm | - | 0 W/m² | - |
| 1788476471 | 18.89° C | 69% | 1018.7 hPa | 0 mm | - | 0 W/m² | - |
| 1788475570 | 18.33° C | 70% | 1018.6 hPa | 0 mm | - | 0 W/m² | - |
| 1788474670 | 18.33° C | 68% | 1018.8 hPa | 0 mm | - | 0 W/m² | - |
| 1788473772 | 18.89° C | 67% | 1018.8 hPa | 0 mm | - | 0 W/m² | - |
| 1788472869 | 19.44° C | 65% | 1018.8 hPa | 0 mm | - | 0 W/m² | - |
| 1788471969 | 19.44° C | 62% | 1019 hPa | 0 mm | - | 0 W/m² | - |
| 1788471069 | 20° C | 61% | 1018.8 hPa | 0 mm | - | 0 W/m² | - |
| 1788470169 | 20.56° C | 60% | 1018.8 hPa | 0 mm | - | 0 W/m² | - |
| 1788469274 | 20.56° C | 58% | 1018.7 hPa | 0 mm | - | 0 W/m² | - |
| 1788468374 | 21.11° C | 57% | 1018.8 hPa | 0 mm | - | 0 W/m² | - |
| 1788467474 | 21.11° C | 56% | 1018.7 hPa | 0 mm | - | 0 W/m² | - |
| 1788466574 | 21.11° C | 55% | 1018.5 hPa | 0 mm | - | 0 W/m² | - |
| 1788465673 | 21.11° C | 55% | 1018.4 hPa | 0 mm | - | 0 W/m² | - |
| 1788464773 | 21.11° C | 55% | 1018.3 hPa | 0 mm | - | 0 W/m² | - |
| 1788463874 | 21.67° C | 55% | 1018 hPa | 0 mm | - | 0 W/m² | - |
| 1788462973 | 21.67° C | 54% | 1017.9 hPa | 0 mm | - | 0 W/m² | - |
| 1788462073 | 22.22° C | 53% | 1017.7 hPa | 0 mm | - | 0 W/m² | - |
| 1788461173 | 22.22° C | 52% | 1017.7 hPa | 0 mm | - | 0 W/m² | - |
* Rain latest hour (hover to see other rain measurements)
** Current wind speed in m/s (hover to see current wind gust speed)